Hourly Data Report for October 10, 2020

MUSKOKA
ONTARIO
Current Station Operator: NAVCAN

44°58'29.000" N
79°18'12.000" W
281.90 m
6115529
71532
YQA

Download Data

Hourly Data (October 2020)
Hourly Data Report for October 10, 2020
TIME Temp Definition
°C
Dew Point Definition
°C
Rel Hum Definition
%
Wind Dir Definition
10's deg

Wind Spd Definition
km/h
Visibility Definition
km
Stn Press Definition
kPa
Hmdx Definition


Wind Chill Definition


Weather Definition


00:00 15.0 9.4 69 17 15 16.1 97.26     LegendNANA
01:00 14.4 9.5 72 17 13 16.1 97.22     LegendNANA
02:00 13.9 9.8 76 18 15 16.1 97.16     LegendNANA
03:00 14.6 10.1 74 18 11 16.1 97.11     LegendNANA
04:00 12.5 9.4 81 19 8 16.1 97.07     LegendNANA
05:00 12.6 10.3 86 18 8 16.1 97.10     LegendNANA
06:00 12.9 10.3 84 19 11 16.1 97.14     LegendNANA
07:00 13.9 11.3 84 20 11 16.1 97.15     LegendNANA
08:00 17.0 12.9 77 22 11 16.1 97.13     LegendNANA
09:00 19.1 14.0 72 25 15 16.1 97.17     LegendNANA
10:00 19.3 14.2 72 25 17 16.1 97.16     LegendNANA
11:00 17.9 13.9 77 26 21 16.1 97.23     LegendNANA
12:00 17.4 13.5 77 25 17 16.1 97.22     LegendNANA
13:00 17.1 12.3 73 27 22 16.1 97.29     LegendNANA
14:00 17.5 11.0 65 29 21 16.1 97.35     LegendNANA
15:00 17.0 8.2 56 27 24 16.1 97.44     LegendNANA
16:00 15.9 9.8 67 26 17 16.1 97.55     LegendNANA
17:00 14.8 8.7 67 29 18 16.1 97.66     LegendNANA
18:00 13.3 6.4 63 34 24 16.1 97.84     LegendNANA
19:00 11.1 3.9 61 33 24 16.1 97.99     LegendNANA
20:00 9.2 3.6 68 36 13 16.1 98.16     LegendNANA
21:00 7.3 2.4 71 34 9 16.1 98.32     LegendNANA
22:00 5.6 2.0 78 35 8 16.1 98.44     LegendNANA
23:00 4.5 1.9 83 35 5 16.1 98.50     LegendNANA

Notes on Data Quality.

Legend

  • E = Estimated
  • M = Missing
  • NA = Not Available*
  • [empty] = Indicates an unobserved value
Date modified: